EW6114 Weather Reports


time (UTC)temp
C
wind
direction
speed
KPH
gust
KPH
rain 1hr
cm
rain 24hr
cm
rain mn
cm
humidity
%
barometer
mb
20260504005023 -17 231 0.0 0.0 0.00 0.00 0.00 1060.4
20260504004515 -17 206 0.0 0.0 0.00 0.00 0.00 1060.4
20260504004012 -17 217 0.0 0.0 0.00 0.00 0.00 1060.4
20260504003508 -17 200 0.0 0.0 0.00 0.00 0.00 1060.5
20260504003239 -17 197 0.0 0.0 0.00 0.00 0.00 1060.3
20260504002500 -17 192 0.0 0.0 0.00 0.00 0.00 1060.2
20260504002000 -17 194 0.0 0.0 0.00 0.00 0.00 1060.2
20260504001500 -17 226 0.0 0.0 0.00 0.00 0.00 1060.2
20260504000959 -17 215 0.0 0.0 0.00 0.00 0.00 1060.1
20260504000459 -17 258 0.0 0.0 0.00 0.00 0.00 1060.1
20260503235958 -17 241 0.0 0.0 0.00 0.00 0.00 1059.9
20260503235458 -17 219 0.0 0.0 0.00 0.00 0.00 1059.8
20260503234956 -17 239 0.0 0.0 0.00 0.00 0.00 1059.7
20260503234454 -17 210 0.0 0.0 0.00 0.00 0.00 1059.6
20260503233954 -17 246 0.0 0.0 0.00 0.00 0.00 1059.6
20260503233454 -17 210 0.0 0.0 0.00 0.00 0.00 1059.7
20260503232450 -17 214 0.0 0.0 0.00 0.00 0.00 1059.6
20260503231948 -17 212 0.0 0.0 0.00 0.00 0.00 1059.7
20260503231447 -17 216 0.0 0.0 0.00 0.00 0.00 1059.5
20260503230944 -17 221 0.0 0.0 0.00 0.00 0.00 1059.4
20260503230444 -17 0.0 0.0 0.00 0.00 0.00 1059.4
20260503225850 -17 0.0 0.0 0.00 0.00 0.00 1059.3
20260503225619 -17 0.0 0.0 0.00 0.00 0.00 1059.2
20260503224751 -17 0.0 0.0 0.00 0.00 0.00 1059.1
20260503224251 -17 0.0 0.0 0.00 0.00 0.00 1059.0
20260503223743 -17 0.0 0.0 0.00 0.00 0.00 1059.0
20260503223156 -17 0.0 0.0 0.00 0.00 0.00 1059.0
20260503222654 -17 0.0 0.0 0.00 0.00 0.00 1058.8
20260503222150 -17 0.0 0.0 0.00 0.00 0.00 1058.8
20260503221647 -17 0.0 0.0 0.00 0.00 0.00 1058.7
20260503221057 -17 0.0 0.0 0.00 0.00 0.00 1058.5
20260503220544 -17 0.0 0.0 0.00 0.00 0.00 1058.4
20260503220226 -17 0.0 0.0 0.00 0.00 0.00 1058.3
20260503215451 -17 0.0 0.0 0.00 0.00 0.00 1058.3
20260503214952 -17 0.0 0.0 0.00 0.00 0.00 1058.0
20260503214358 -17 0.0 0.0 0.00 0.00 0.00 1058.0
20260503213848 -17 0.0 0.0 0.00 0.00 0.00 1057.9
20260503213524 -17 0.0 0.0 0.00 0.00 0.00 1057.8
20260503212750 -17 0.0 0.0 0.00 0.00 0.00 1057.8
20260503212249 -17 257 0.0 0.0 0.00 0.00 0.00 1057.8
20260503211745 -17 257 0.0 0.0 0.00 0.00 0.00 1057.8
20260503211154 -17 257 0.0 0.0 0.00 0.00 0.00 1057.9
20260503210636 -17 210 0.0 0.0 0.00 0.00 0.00 1057.8
20260503210136 -17 246 0.0 0.0 0.00 0.00 0.00 1057.8
20260503205634 -17 240 0.0 0.0 0.00 0.00 0.00 1057.8
20260503205124 -17 275 0.0 0.0 0.00 0.00 0.00 1057.7
20260503204623 -17 245 0.0 0.0 0.00 0.00 0.00 1057.6
20260503203624 -17 268 0.0 0.0 0.00 0.00 0.00 1057.5
20260503203124 -17 234 0.0 0.0 0.00 0.00 0.00 1057.5
20260503202558 -17 229 0.0 0.0 0.00 0.00 0.00 1057.4
20260503202058 -17 267 0.0 0.0 0.00 0.00 0.00 1057.3
20260503201555 -17 209 0.0 0.0 0.00 0.00 0.00 1057.3
20260503201327 -17 289 0.0 0.0 0.00 0.00 0.00 1057.2
20260503200550 -17 251 0.0 0.0 0.00 0.00 0.00 1057.2
20260503200049 -17 268 0.0 0.0 0.00 0.00 0.00 1057.2
20260503195819 -17 199 0.0 0.0 0.00 0.00 0.00 1057.2
20260503195048 -17 216 0.0 0.0 0.00 0.00 0.00 1057.1
20260503194546 -17 239 0.0 0.0 0.00 0.00 0.00 1057.1
20260503194315 -17 250 0.0 0.0 0.00 0.00 0.00 1057.0
20260503193538 -17 262 0.0 0.0 0.00 0.00 0.00 1057.0
20260503193026 -17 268 0.0 0.0 0.00 0.00 0.00 1057.0
20260503192526 -17 238 0.0 0.0 0.00 0.00 0.00 1056.9
20260503192257 -17 276 0.0 0.0 0.00 0.00 0.00 1056.9
20260503191526 -17 228 0.0 0.0 0.00 0.00 0.00 1056.8
20260503191026 -17 275 0.0 0.0 0.00 0.00 0.00 1056.8
20260503190523 -17 268 0.0 0.0 0.00 0.00 0.00 1056.7
20260503190012 -17 238 0.0 0.0 0.00 0.00 0.00 1056.8
20260503185731 -17 224 0.0 0.0 0.00 0.00 0.00 1056.8
20260503185000 -17 233 0.0 0.0 0.00 0.00 0.00 1056.7
20260503184458 -17 244 0.0 0.0 0.00 0.00 0.00 1056.7
20260503183958 -17 244 0.0 0.0 0.00 0.00 0.00 1056.8
20260503183458 -17 287 0.0 0.0 0.00 0.00 0.00 1056.8
20260503182951 -17 252 0.0 0.0 0.00 0.00 0.00 1056.9
20260503182714 -17 235 0.0 0.0 0.00 0.00 0.00 1056.8
20260503181944 -17 262 0.0 0.0 0.00 0.00 0.00 1056.9
20260503181444 -17 283 0.0 0.0 0.00 0.00 0.00 1056.8
20260503180943 -17 307 0.0 0.0 0.00 0.00 0.00 1056.8
20260503180442 -17 262 0.0 0.0 0.00 0.00 0.00 1056.7
20260503175942 -17 268 0.0 0.0 0.00 0.00 0.00 1056.8
20260503175440 -17 246 0.0 0.0 0.00 0.00 0.00 1056.8
20260503174939 -17 216 0.0 0.0 0.00 0.00 0.00 1056.8
20260503174439 -17 262 0.0 0.0 0.00 0.00 0.00 1056.9
20260503173938 -17 242 0.0 0.0 0.00 0.00 0.00 1056.9
20260503173438 -17 300 0.0 0.0 0.00 0.00 0.00 1056.9
20260503172937 -17 224 0.0 0.0 0.00 0.00 0.00 1056.8
20260503172434 -17 213 0.0 0.0 0.00 0.00 0.00 1056.9
20260503171857 -17 219 0.0 0.0 0.00 0.00 0.00 1056.9
20260503171346 -17 273 0.0 0.0 0.00 0.00 0.00 1056.9
20260503170838 -17 254 0.0 0.0 0.00 0.00 0.00 1056.8
20260503170336 -17 287 0.0 0.0 0.00 0.00 0.00 1056.9
20260503150820 -17 256 0.0 0.0 0.00 0.00 0.00 1057.2
20260503150315 -17 304 0.0 0.0 0.00 0.00 0.00 1057.2
20260503140210 -17 287 0.0 0.0 0.00 0.00 0.00 1057.9
20260503131156 -17 237 0.0 0.0 0.00 0.00 0.00 1058.1
20260503130650 -17 306 0.0 0.0 0.00 0.00 0.00 1058.2
20260503130138 -17 266 0.0 0.0 0.00 0.00 0.00 1058.2
20260503110524 -17 280 0.0 0.0 0.00 0.00 0.00 1058.2
20260503090444 -17 268 0.0 0.0 0.00 0.00 0.00 1057.3
20260503081424 -17 279 0.0 0.0 0.00 0.00 0.00 1056.8
20260503080921 -17 268 0.0 0.0 0.00 0.00 0.00 1056.8
20260503080421 -17 306 0.0 0.0 0.00 0.00 0.00 1056.7
20260503072914 -17 268 0.0 0.0 0.00 0.00 0.00 1056.7
20260503072414 -17 336 0.0 0.0 0.00 0.00 0.00 1056.6
20260503072143 -17 254 0.0 0.0 0.00 0.00 0.00 1056.8
20260503071412 -17 273 0.0 0.0 0.00 0.00 0.00 1056.7
20260503070910 -17 258 0.0 0.0 0.00 0.00 0.00 1056.7
20260503070639 -17 286 0.0 0.0 0.00 0.00 0.00 1056.8
20260503054750 -17 226 0.0 0.0 0.00 0.00 0.00 1056.2
20260503054250 -17 283 0.0 0.0 0.00 0.00 0.00 1055.8
20260503053750 -17 303 0.0 0.0 0.00 0.00 0.00 1056.2
20260503053250 -17 309 0.0 0.0 0.00 0.00 0.00 1056.3
20260503053019 -17 251 0.0 0.0 0.00 0.00 0.00 1056.1
20260503052248 -17 229 0.0 0.0 0.00 0.00 0.00 1056.2
20260503051748 -17 1 0.0 0.0 0.00 0.00 0.00 1056.3
20260503051246 -17 314 0.0 0.0 0.00 0.00 0.00 1056.3
20260503050740 -17 262 0.0 0.0 0.00 0.00 0.00 1056.1
20260503050232 -17 249 0.0 0.0 0.00 0.00 0.00 1056.1
20260503045955 -17 225 0.0 0.0 0.00 0.00 0.00 1056.0
20260503045222 -17 320 0.0 0.0 0.00 0.00 0.00 1055.8
20260503044954 -17 239 0.0 0.0 0.00 0.00 0.00 1056.1
20260503044453 -17 276 0.0 0.0 0.00 0.00 0.00 1056.1
20260503043722 -17 253 0.0 0.0 0.00 0.00 0.00 1056.1
20260503043222 -17 238 0.0 0.0 0.00 0.00 0.00 1056.2
20260503042720 -17 243 0.0 0.0 0.00 0.00 0.00 1056.1
20260503042451 -17 283 0.0 0.0 0.00 0.00 0.00 1056.1
20260503041718 -17 267 0.0 0.0 0.00 0.00 0.00 1056.1
20260503041218 -17 259 0.0 0.0 0.00 0.00 0.00 1056.1
20260503040716 -17 202 0.0 0.0 0.00 0.00 0.00 1056.1
20260503040216 -17 258 0.0 0.0 0.00 0.00 0.00 1056.0
20260503035715 -17 249 0.0 0.0 0.00 0.00 0.00 1056.2
20260503035214 -17 244 0.0 0.0 0.00 0.00 0.00 1056.3
20260503034715 -17 296 0.0 0.0 0.00 0.00 0.00 1056.4
20260503034211 -17 294 0.0 0.0 0.00 0.00 0.00 1056.5
20260503033710 -17 292 0.0 0.0 0.00 0.00 0.00 1056.4
20260503033210 -17 266 0.0 0.0 0.00 0.00 0.00 1056.4
20260503032708 -17 277 0.0 0.0 0.00 0.00 0.00 1056.4
20260503032208 -17 221 0.0 0.0 0.00 0.00 0.00 1056.3
20260503031708 -17 277 0.0 0.0 0.00 0.00 0.00 1056.5
20260503031206 -17 266 0.0 0.0 0.00 0.00 0.00 1056.7
20260503030704 -17 217 0.0 0.0 0.00 0.00 0.00 1056.6
20260503030204 -17 271 0.0 0.0 0.00 0.00 0.00 1056.5
20260503025702 -17 252 0.0 0.0 0.00 0.00 0.00 1056.6
20260503025202 -17 280 0.0 0.0 0.00 0.00 0.00 1056.7
20260503024700 -17 296 0.0 0.0 0.00 0.00 0.00 1056.8
20260503024156 -17 287 0.0 0.0 0.00 0.00 0.00 1056.9
20260503023915 -17 244 0.0 0.0 0.00 0.00 0.00 1056.8
20260503023144 -17 239 0.0 0.0 0.00 0.00 0.00 1056.8
20260503022645 -17 298 0.0 0.0 0.00 0.00 0.00 1056.7
20260503022142 -17 291 0.0 0.0 0.00 0.00 0.00 1056.9
20260503021640 -17 242 0.0 0.0 0.00 0.00 0.00 1056.8
20260503021410 -17 279 0.0 0.0 0.00 0.00 0.00 1056.9
20260503020639 -17 234 0.0 0.0 0.00 0.00 0.00 1056.9
20260503020138 -17 231 0.0 0.0 0.00 0.00 0.00 1057.0
20260503015636 -17 347 0.0 0.0 0.00 0.00 0.00 1056.9
20260503015135 -17 252 0.0 0.0 0.00 0.00 0.00 1056.9
20260503014634 -17 241 0.0 0.0 0.00 0.00 0.00 1057.0
20260503014134 -17 246 0.0 0.0 0.00 0.00 0.00 1056.9
20260503013634 -17 283 0.0 0.0 0.00 0.00 0.00 1056.8
20260503013134 -17 293 0.0 0.0 0.00 0.00 0.00 1057.0
20260503012634 -17 283 0.0 0.0 0.00 0.00 0.00 1056.9
20260503012134 -17 256 0.0 0.0 0.00 0.00 0.00 1056.9
20260503011634 -17 230 0.0 0.0 0.00 0.00 0.00 1057.0
20260503011128 -17 241 0.0 0.0 0.00 0.00 0.00 1056.9
20260503010624 -17 279 0.0 0.0 0.00 0.00 0.00 1057.1
20260503010125 -17 254 0.0 0.0 0.00 0.00 0.00 1057.1
20260503005620 -17 274 0.0 0.0 0.00 0.00 0.00 1057.0
20260503005118 -17 287 0.0 0.0 0.00 0.00 0.00 1057.1